Regional Weather Roundup
Issued by NWS Cleveland, OH

Home | Current Version | Previous Version | Graphics & Text | Print | Product List | Glossary On
Versions: 1 2 3 4 5 6 7 8 9 10 11 12 13 14 15 16 17 18 19 20 21 22 23 24 25 26 27 28 29 30 31 32 33 34 35 36 37 38 39 40 41 42 43 44 45 46 47 48 49 50
000
ASUS41 KCLE 231512
RWRCLE
OHIO REGIONAL WEATHER ROUNDUP
NATIONAL WEATHER SERVICE WILMINGTON, OH
1100 AM EDT SAT SEP 23 2017

NOTE: "FAIR" INDICATES FEW OR NO CLOUDS BELOW 12,000 FEET WITH NO
SIGNIFICANT WEATHER AND/OR OBSTRUCTIONS TO VISIBILITY.

OHZ001>008-015>018-024>027-034-035-043-044-231600-
   NORTHWEST OHIO

CITY           SKY/WX    TMP DP  RH WIND       PRES   REMARKS
DEFIANCE       FAIR      79  67  66 CALM      30.15R
FINDLAY        FAIR      82  67  60 CALM      30.14S
TOLEDO EXPRESS FAIR      80  69  69 CALM      30.14S
TOLEDO EXEC    FAIR      80  67  64 CALM      30.15S
LIMA           FAIR      82  66  58 CALM      30.15S
$$

OHZ009>014-019>023-028>033-038-089-231600-
   NORTHEAST OHIO

CITY           SKY/WX    TMP DP  RH WIND       PRES   REMARKS
CLE-HOPKINS    FAIR      84  59  42 VRB3      30.18R
CLE-LAKEFRONT  FAIR      75  62  64 VRB5      30.16R
CUY CO. ARPT   SUNNY    N/A N/A N/A N6        30.18S
LORAIN-ELYRIA  FAIR      79  59  50 CALM      30.17S
ASHTABULA      FAIR      78  57  48 CALM      30.19R
AKRON-CANTON   FAIR      82  58  43 E5        30.18R
WOOSTER        FAIR      79  61  53 CALM      30.18S
MANSFIELD      FAIR      81  58  45 CALM      30.18S
YOUNGSTOWN     FAIR      78  57  48 VRB3      30.18S
$$

OHZ042-051>053-060>062-070>072-077>081-231600-
  SOUTHWEST OHIO

CITY           SKY/WX    TMP DP  RH WIND       PRES   REMARKS
CINC-COVINGTON FAIR      82  68  62 NE5       30.14S
CINC-LUNKEN    FAIR      80  69  69 CALM      30.14S
HAMILTON       FAIR      81  68  64 CALM      30.15S
DAYTON         FAIR      82  65  56 NE3       30.16S
WRIGHT-PAT AFB FAIR      79  69  71 CALM      30.14F
DAYTON GENERAL FAIR      82  65  56 CALM      30.14F
WILMINGTON     FAIR      80  68  66 NE6       30.15S
$$

OHZ036-037-039>041-045>050-054>059-063>069-073>076-082>088-231600-
  CENTRAL AND SOUTHEAST OHIO

CITY           SKY/WX    TMP DP  RH WIND       PRES   REMARKS
COLUMBUS       FAIR      80  64  58 CALM      30.14S
OSU AIRPORT    FAIR      79  66  64 CALM      30.15R
BOLTON FIELD   SUNNY     79  66  65 CALM      30.15F
RICKENBACK AFB FAIR      76  65  68 CALM      30.14S
NEWARK         FAIR      78  57  48 E6        30.15S
MARION         FAIR      82  58  43 CALM      30.16S
LANCASTER      FAIR      80  66  62 VRB3      30.15S
ZANESVILLE     FAIR      78  61  55 CALM      30.16R
NEW PHILLY     FAIR      77  62  59 CALM      30.16F
$$



USA.gov is the U.S. government's official web portal to all federal, state and local government web resources and services.